Tracking 29511 objects as of 17-Sep-2024
HD Live streaming from Space Station
objects crossing your sky now

DELTA 1 DEB

Track DELTA 1 DEB now!
10-day predictions


NORAD ID: 10652
Int'l Code: 1976-077N
Perigee: 1,504.8 km
Apogee: 1,893.3 km
Inclination: 102.9 °
Period: 120.2 minutes
Semi major axis: 8070 km
RCS: 0.0957 m2 (small)
Launch date: July 29, 1976
Source: United States (US)
Launch site: AIR FORCE WESTERN TEST RANGE (AFWTR)

Note: This is SATELLITE DEBRIS
Your satellite tracking list
Your tracking list is empty




NASA's NSSDC Master Catalog

Two Line Element Set (TLE):
1 10652U 76077N   24260.41917889  .00000994  00000-0  12197-1 0  9995
2 10652 102.9014 153.1090 0240740 221.0451 137.2247 11.97536739 75564
Source of the keplerian elements: AFSPC